Regional Weather Roundup
Issued by NWS

Home | Current Version | Previous Version | Graphics & Text | Print | Product List | Glossary On
Versions: 1 2 3 4 5 6 7 8 9 10 11 12 13 14 15 16 17 18 19 20 21 22 23 24 25 26 27 28 29 30 31 32 33 34 35 36 37 38 39 40 41 42 43 44 45 46 47 48 49 50
000
ASUS45 KBOU 290907
RWRCO

WEATHER ROUNDUP FOR COLORADO
NATIONAL WEATHER SERVICE DENVER/BOULDER CO
200 AM MST THU JAN 29 2015

NOTE: "FAIR" INDICATES FEW OR NO CLOUDS BELOW 12000 FEET WITH NO
SIGNIFICANT WEATHER AND/OR OBSTRUCTIONS TO VISIBILITY.

COZ001>005-013-030-031-291000-
...NORTHWEST COLORADO...

CITY           SKY/WX    TMP DP  RH WIND       PRES   REMARKS
CRAIG          CLOUDY    32  30  92 CALM      30.36R
HAYDEN         CLOUDY    34  28  80 CALM      30.35R
MEEKER         PTCLDY    24  21  88 SE3       30.37R
MOUNT WERNER   NOT AVBL
STEAMBOAT SPGS CLOUDY    33  29  86 CALM      30.36R
WALDEN         CLOUDY    30  27  86 CALM      30.35S
$$

COZ006>008-011-291000-
...WEST CENTRAL VALLEYS...

CITY           SKY/WX    TMP DP  RH WIND       PRES   REMARKS
GRAND JUNCTION MOCLDY    34  28  79 E6        30.32R WCI  29
MONTROSE       CLOUDY    32  26  78 S9        30.35S WCI  24
EAGLE          CLOUDY    34  28  80 CALM      30.40R
RIFLE          CLOUDY    34  28  79 CALM      30.36R
DELTA          NOT AVBL
NUCLA          CLOUDY    32  27  80 E5        30.36R WCI  27
$$

COZ017>023-064>068-291000-
...SOUTHWEST COLORADO...

CITY           SKY/WX    TMP DP  RH WIND       PRES   REMARKS
DURANGO        CLOUDY    31  27  85 CALM      30.32R
CORTEZ         CLEAR     31  26  82 CALM      30.31S
PAGOSA SPRINGS CLOUDY    31  27  83 CALM      30.34S
TELLURIDE      CLOUDY    29  22  74 CALM      30.37R
WOLF CREEK PAS NOT AVBL
$$

COZ009-010-012-014-032>034-037-058>063-291000-
...CENTRAL COLORADO...

CITY           SKY/WX    TMP DP  RH WIND       PRES   REMARKS
ASPEN          MOCLDY    29  20  69 SW8       30.35R WCI  21
BUENA VISTA    CLOUDY    30  17  59 NW8       30.36R WCI  22
COPPER MTN     FLURRIES  25  16  68 CALM      30.40R
BERTHOUD PASS  CLOUDY    16  10  79 NW10      30.40R WCI   3
COTTONWOOD PAS CLOUDY    32  18  55 W3        30.38R
GUNNISON       CLOUDY    12   9  85 CALM      30.40S
KREMMLING      CLOUDY    30  27  86 CALM      30.39R
LEADVILLE      CLOUDY    20  13  74 SE3       30.37R
MONARCH PASS   CLOUDY    21  16  79 MISG      30.49R
SALIDA         CLOUDY    31  20  64 CALM      30.45R
SUNLIGHT       MOCLDY    27  25  93 CALM        N/A
WILKERSON PASS CLOUDY    21  18  86 S3        30.41R
$$

COZ069>075-291000-
...SAN LUIS VALLEY/SANGRE DE CRISTO MOUNTAINS...

CITY           SKY/WX    TMP DP  RH WIND       PRES   REMARKS
ALAMOSA        CLOUDY    21  15  78 VRB3      30.34R
LA VETA PASS   NOT AVBL
SAGUACHE       CLOUDY    30  21  69 NW18      30.33R WCI  18
$$

COZ035-036-038>040-291000-
...NORTHERN COLORADO FRONT RANGE...

CITY           SKY/WX    TMP DP  RH WIND       PRES   REMARKS
DENVER INTL AP CLOUDY    37  30  75 W9        30.40R
DMNS CITY PARK   N/A     39  28  63 W3        30.40R
AURORA         CLOUDY    36  32  84 NW6       30.40R
FRONT RANGE AP NOT AVBL
ERIE MUNI ARPT CLOUDY    39  31  72 CALM      30.40R
BOULDER MUN AP CLOUDY    39  30  70 S3        30.40R
CENTENNIAL     CLOUDY    37  30  75 NW6       30.39R
BROOMFIELD     CLOUDY    37  30  75 N5        30.41R
FORT COLLINS   CLOUDY    39  27  60 N8        30.40R
LONGMONT       CLOUDY    39  31  73 CALM      30.42R
$$

COZ041-046-047-076>085-087-088-291000-
...PIKES PEAK/PALMER DIVIDE AND SOUTHERN FOOTHILLS...

CITY           SKY/WX    TMP DP  RH WIND       PRES   REMARKS
COLO. SPRINGS  MOCLDY    36  26  67 N15       30.38R
A. F. ACADEMY  MOCLDY    35  25  66 N10       30.38R WCI  27
ELLICOTT       MOCLDY   N/A N/A N/A N13       30.36R
FALCON         MOCLDY    32  25  76 N12       30.38R WCI  23
FORT CARSON    MOCLDY    38  27  63 N13       30.36R
LIMON          CLOUDY    33  27  78 N13       30.35R WCI  24
MONUMENT HILL  CLOUDY    32  28  86 NW6       30.38R WCI  26
TRINIDAD       PTCLDY    32  27  81 W7        30.38R WCI  26
$$

COZ042>045-048>051-090-091-291000-
...NORTHEAST COLORADO...

CITY           SKY/WX    TMP DP  RH WIND       PRES   REMARKS
GREELEY ARPT   CLOUDY    39  27  60 NW8       30.38R
AKRON          CLOUDY    36  28  73 NW10      30.34R
BURLINGTON     CLEAR     36  28  73 N9        30.32R
WRAY           MOCLDY    34  30  85 NW8       30.35R WCI  28
STERLING       CLOUDY    41  32  70 N9        30.35R
HOLYOKE        CLEAR     34  28  80 N16       30.34R WCI  23
FORT MORGAN    CLOUDY    39  25  57 W7        30.39R
$$

COZ086-089-092>099-291000-
...SOUTHEAST COLORADO...

CITY           SKY/WX    TMP DP  RH WIND       PRES   REMARKS
PUEBLO         CLOUDY    39  29  67 E3        30.38R
LA JUNTA       MOCLDY    37  30  75 MISG      30.37R
LAMAR          MOCLDY    41  31  67 NW12      30.34R
SPRINGFIELD      N/A     39  31  72 NW14      30.32R
$$



USA.gov is the U.S. government's official web portal to all federal, state and local government web resources and services.